Springfield, MO

8:51 PM CST on December 13, 2019 (GMT -0600)
Springfield-Branson Regional

Weather History for KSGF - October, 2019

Change the Weather History Date:

Monday, October 21, 2019

  Actual Average Record
Temperature  
Mean Temperature 58 °F 56 °F  
Max Temperature 65 °F 68 °F 88 °F (1978)
Min Temperature 50 °F 45 °F 25 °F (1987)
Degree Days  
Heating Degree Days 7 9  
Month to date heating degree days 152 143  
Since 1 July heating degree days 152 198  
Cooling Degree Days 0 1  
Month to date cooling degree days 37 27  
Year to date cooling degree days 1687 1386  
Growing Degree Days 6 (Base 50)    
Moisture  
Dew Point 49 °F    
Average Humidity 66    
Maximum Humidity 93    
Minimum Humidity 39    
Precipitation  
Precipitation 0.89 in 0.12 in 5.48 in (1949)
Month to date precipitation 5.35 2.42  
Year to date precipitation 47.04 37.14  
Snow  
Snow 0.00 in - - ()
Month to date snowfall 0.0  
Since 1 July snowfall 0.0  
Since 1 September snowfall 0.0  
Snow Depth 0.00 in    
Sea Level Pressure  
Sea Level Pressure 29.63 in    
Wind  
Wind Speed 14 mph (WSW)    
Max Wind Speed 30 mph    
Max Gust Speed 42 mph    
Visibility 8 miles    
Events Rain , Thunderstorm    
T = Trace of Precipitation, MM = Missing Value Source: NWS Daily Summary

Daily Weather History Graph

Daily Weather History Graph

Search for Another Location

Airport or City:

Astronomy

Oct. 21, 2019 Rise Set
Actual Time 7:26 AM CDT 6:28 PM CDT
Civil Twilight 7:00 AM CDT 6:55 PM CDT
Nautical Twilight 6:30 AM CDT 7:25 PM CDT
Astronomical Twilight 5:59 AM CDT 7:55 PM CDT
Moon No Moon Rise 2:40 PM CDT (10/21)
Length of Visible Light 11h 54m
Length of Day
11h 01m
Waning Gibbous, 48% of the Moon is Illuminated
Oct 21
Waning Gibbous
Oct 27
New
Nov 4
First Quarter
Nov 12
Full
Nov 19
Last Quarter

Hourly Weather History & Observations

Time (CDT) Temp. Dew Point Humidity Pressure Visibility Wind Dir Wind Speed Gust Speed Precip Events Conditions
12:07 AM 66.0 °F 60.1 °F 81% 29.49 in 10.0 mi SE 19.6 mph 38.0 mph 0.00 in Rain , Thunderstorm Light Thunderstorms and Rain
12:14 AM 64.9 °F 60.1 °F 84% 29.50 in 8.0 mi SSE 18.4 mph 33.4 mph 0.00 in Rain , Thunderstorm Light Thunderstorms and Rain
12:52 AM 64.9 °F 62.1 °F 90% 29.50 in 4.0 mi South 10.4 mph 29.9 mph 0.10 in Rain , Thunderstorm Thunderstorms and Rain
12:59 AM 64.9 °F 62.1 °F 90% 29.54 in 3.0 mi WNW 13.8 mph 20.7 mph 0.02 in Rain , Thunderstorm Thunderstorms and Rain
1:09 AM 61.0 °F 59.0 °F 93% 29.63 in 0.8 mi West 23.0 mph 39.1 mph 0.14 in Rain , Thunderstorm Heavy Thunderstorms and Rain
1:12 AM 60.1 °F 57.9 °F 93% 29.61 in 0.8 mi West 20.7 mph 39.1 mph 0.28 in Rain , Thunderstorm Heavy Thunderstorms and Rain
1:19 AM 60.1 °F 57.9 °F 93% 29.55 in 1.0 mi NW 18.4 mph 27.6 mph 0.65 in Rain , Thunderstorm Heavy Thunderstorms and Rain
1:24 AM 60.1 °F 57.9 °F 93% 29.55 in 2.0 mi NW 16.1 mph 27.6 mph 0.71 in Rain , Thunderstorm Thunderstorms and Rain
1:32 AM 60.1 °F 57.9 °F 93% 29.56 in 5.0 mi NW 15.0 mph 25.3 mph 0.73 in Rain , Thunderstorm Thunderstorms and Rain
1:40 AM 60.1 °F 57.9 °F 93% 29.57 in 5.0 mi NW 11.5 mph 24.2 mph 0.76 in Rain , Thunderstorm Rain
1:52 AM 60.1 °F 57.9 °F 93% 29.55 in 4.0 mi NW 6.9 mph - 0.80 in Rain , Thunderstorm Rain
2:12 AM 60.1 °F 57.0 °F 90% 29.52 in 5.0 mi ENE 9.2 mph - 0.08 in Rain Rain
2:27 AM 60.1 °F 57.0 °F 90% 29.52 in 10.0 mi East 9.2 mph - 0.11 in Rain , Thunderstorm Light Rain
2:42 AM 59.0 °F 57.0 °F 93% 29.55 in 10.0 mi SSE 8.1 mph - 0.11 in   Mostly Cloudy
2:52 AM 59.0 °F 57.0 °F 93% 29.55 in 10.0 mi SSW 8.1 mph - 0.11 in   Partly Cloudy
3:34 AM 60.1 °F 57.9 °F 93% 29.58 in 10.0 mi South 11.5 mph - N/A   Overcast
3:52 AM 59.0 °F 57.0 °F 93% 29.54 in 10.0 mi South 11.5 mph - N/A   Overcast
4:34 AM 59.0 °F 55.9 °F 90% 29.56 in 10.0 mi SSW 12.7 mph - N/A   Overcast
4:47 AM 59.0 °F 57.2 °F 94% 29.55 in 10.0 mi SSW 11.5 mph - N/A   Overcast
4:52 AM 59.0 °F 57.0 °F 93% 29.53 in 10.0 mi SSW 11.5 mph - N/A   Overcast
5:22 AM 59.0 °F 55.9 °F 90% 29.57 in 10.0 mi SW 12.7 mph - 0.00 in   Overcast
5:44 AM 59.0 °F 55.9 °F 90% 29.57 in 10.0 mi WSW 13.8 mph - 0.00 in   Overcast
5:52 AM 59.0 °F 55.9 °F 90% 29.55 in 10.0 mi WSW 11.5 mph 21.9 mph 0.00 in   Overcast
6:08 AM 59.0 °F 54.0 °F 83% 29.59 in 10.0 mi West 15.0 mph 31.1 mph N/A   Mostly Cloudy
6:15 AM 57.9 °F 51.1 °F 78% 29.59 in 10.0 mi West 17.3 mph - N/A   Mostly Cloudy
6:22 AM 55.9 °F 48.0 °F 75% 29.59 in 10.0 mi West 16.1 mph - N/A   Scattered Clouds
6:52 AM 54.0 °F 46.0 °F 75% 29.58 in 10.0 mi West 13.8 mph - N/A   Clear
7:52 AM 51.1 °F 41.0 °F 68% 29.62 in 10.0 mi West 13.8 mph 23.0 mph N/A   Clear
8:52 AM 50.0 °F 39.0 °F 66% 29.66 in 10.0 mi West 12.7 mph 24.2 mph N/A   Clear
9:52 AM 52.0 °F 39.0 °F 61% 29.68 in 10.0 mi West 19.6 mph 32.2 mph N/A   Clear
10:52 AM 54.0 °F 37.9 °F 55% 29.70 in 10.0 mi West 20.7 mph 33.4 mph N/A   Clear
11:52 AM 55.9 °F 39.0 °F 53% 29.70 in 10.0 mi West 20.7 mph 28.8 mph N/A   Clear
12:52 PM 57.0 °F 39.0 °F 51% 29.70 in 10.0 mi WSW 18.4 mph 27.6 mph N/A   Clear
1:52 PM 60.1 °F 39.9 °F 47% 29.70 in 10.0 mi WSW 21.9 mph 31.1 mph N/A   Clear
2:52 PM 62.1 °F 39.0 °F 43% 29.70 in 10.0 mi West 20.7 mph 33.4 mph N/A   Clear
3:52 PM 62.1 °F 37.0 °F 39% 29.72 in 10.0 mi WSW 20.7 mph 35.7 mph N/A   Clear
4:52 PM 62.1 °F 37.0 °F 39% 29.72 in 10.0 mi WSW 19.6 mph 29.9 mph N/A   Clear
5:52 PM 60.1 °F 36.0 °F 41% 29.73 in 10.0 mi WSW 13.8 mph 26.5 mph N/A   Clear
6:52 PM 54.0 °F 37.0 °F 53% 29.76 in 10.0 mi SW 9.2 mph - N/A   Clear
7:52 PM 50.0 °F 37.0 °F 61% 29.78 in 10.0 mi SSW 9.2 mph - N/A   Clear
8:52 PM 54.0 °F 34.0 °F 47% 29.83 in 10.0 mi West 12.7 mph - N/A   Partly Cloudy
9:52 PM 53.1 °F 35.1 °F 50% 29.86 in 10.0 mi West 9.2 mph - N/A   Clear
10:52 PM 53.1 °F 35.1 °F 50% 29.89 in 10.0 mi West 13.8 mph 24.2 mph N/A   Clear
11:52 PM 51.1 °F 35.1 °F 54% 29.90 in 10.0 mi West 13.8 mph - N/A   Clear